Location: Unspecified
(35.6961°N, 0.0000°E)
Time: 08:10:13
(UTC+00:00)

S-56A Canister/Altair - Pass Details

Date: 05 June 2019
Orbit: 633 x 2499 km, 38.9° (Epoch: 25 June)

Event Time Altitude Azimuth Distance (km) Brightness Sun altitude
Rises 01:24:51 0° 287° (WNW) 3,105 - -28.3°
Reaches altitude 10° 01:26:56 10° 287° (WNW) 2,298 - -28.1°
Exits shadow 01:30:25 47° 289° (WNW) 1,153 8.3 -27.9°
Maximum altitude 01:32:14 89° 17° (NNE) 954 7.8 -27.7°
Drops below altitude 10° 01:40:04 10° 108° (ESE) 3,327 10.8 -27.0°
Sets 01:43:38 0° 109° (ESE) 4,609 11.6 -26.7°
